Flag for Germany Weather past 2 weeks in Zwickau, Saxony, Germany

Now
57 °F

Partly sunny.


Feels Like: 55 °F
Forecast: 42 / 69 °F
Wind: 7 mph from West

Location: Gera-Leumnitz

Current Time: May 30, 2015 at 3:01:43 PM

Latest Report: May 30, 2015 at 2:00 PM


Visibility: 41 mi

Pressure: 29.91 "Hg

Humidity: 49%

Dew point: 38 °F

Location of ZwickauLocation

Historic Weather in Zwickau — Graph

°F

Zwickau temperature yesterday

Maximum temperature yesterday: 66 °F (at 2:00 PM)
Minimum temperature yesterday: 47 °F (at 4:00 AM)
Average temperature yesterday: 57 °F

Past Weeks' High & Low Weather Summary

 TemperatureHumidityPressure
High69 °F (May 18, 5:00 PM)97% (May 29, 4:00 AM)30.37 "Hg (May 29, 4:00 AM)
Low37 °F (May 22, 5:00 AM)26% (May 19, 5:00 PM)29.67 "Hg (May 18, 8:00 PM)
Average54 °F67%30.04 "Hg
* Reported May 15 2:00 PM — May 30 2:00 PM, Zwickau, Weather by CustomWeather, © 2015

Note: Actual official high and low records may vary slightly from our data, if they occured in-between our weather recording intervals... More about our weather records

Advertising

Zwickau weather history for previous 24 hours

 ConditionsComfort  
Time TempWeatherWind HumidityBarometerVisibility
2:00 PM
Sat, May 30
57 °FPartly sunny.7 mph49%29.91 "Hg40 mi
1:00 PM58 °FPartly sunny.8 mph47%29.90 "Hg40 mi
12:00 PM55 °FPartly sunny.7 mph54%29.91 "Hg40 mi
11:00 AM55 °FPartly sunny.7 mph60%29.90 "Hg40 mi
10:00 AM53 °FPartly sunny.6 mph76%29.89 "Hg37 mi
9:00 AM50 °FPartly sunny.6 mph83%29.88 "Hg37 mi
8:00 AM47 °FOvercast.5 mph90%29.87 "Hg37 mi
7:00 AM46 °FLight rain. Low clouds.3 mph92%29.87 "Hg16 mi
6:00 AM46 °FLight rain. Low clouds.8 mph89%29.86 "Hg25 mi
5:00 AM54 °FOvercast.8 mph73%29.80 "Hg14 mi
4:00 AM53 °FOvercast.6 mph78%29.81 "Hg22 mi
3:00 AM51 °FOvercast.5 mph83%29.80 "Hg22 mi
2:00 AM49 °FOvercast.3 mph87%29.81 "Hg19 mi
1:00 AM51 °FPassing clouds.2 mph81%29.81 "Hg34 mi
12:00 AM54 °FOvercast.3 mph76%29.80 "Hg43 mi
11:00 PM
Fri, May 29
56 °FPassing clouds.6 mph70%29.79 "Hg43 mi
10:00 PM59 °FOvercast.7 mph61%29.78 "Hg43 mi
9:00 PM61 °FLight rain. Overcast.7 mph60%29.76 "Hg40 mi
8:00 PM63 °FOvercast.6 mph53%29.76 "Hg37 mi
7:00 PM63 °FOvercast.6 mph56%29.77 "Hg37 mi
6:00 PM64 °FPartly sunny.7 mph49%29.78 "Hg37 mi
5:00 PM64 °FLight rain. Overcast.6 mph50%29.79 "Hg37 mi
4:00 PM65 °FOvercast.8 mph41%29.81 "Hg28 mi
3:00 PM65 °FOvercast.8 mph40%29.82 "Hg28 mi
Weather by CustomWeather, © 2015

See weather overviewHow to use our weather pages